Location: Alvediston
(51.0078°N, 2.0364°W)
Time: 19:46:48
(UTC+00:00)

Meteor 1-23 Rocket - Pass Details

Date: 27 February 2020
Orbit: 841 x 884 km, 81.3° (Epoch: 29 March)

Event Time Altitude Azimuth Distance (km) Brightness Sun altitude
Rises 19:58:23 0° 349° (N) 3,434 7.7 -21.7°
Reaches altitude 10° 20:00:52 10° 354° (N) 2,500 6.9 -22.0°
Maximum altitude 20:06:27 56° 73° (ENE) 1,021 4.3 -22.9°
Enters shadow 20:07:10 52° 102° (ESE) 1,064 4.3 -23.0°
